Location: Newark
(49.1000°N, 0.4667°W)
Time: 09:33:34
(UTC+00:00)

Envisat - Visible Passes

Search period start: 30 July 2021 00:00
Search period end: 09 August 2021 00:00
Orbit: 764 x 766 km, 98.2° (Epoch: 29 July)

Date Brightness Start Highest point End Pass type
(mag) Time Alt. Az. Time Alt. Az. Time Alt. Az.
31 Jul 6.4 03:45:53 10° E 03:46:15 10° E 03:46:37 10° E visible
05 Aug 5.9 03:57:44 10° NE 04:00:21 14° E 04:02:57 10° ESE visible
08 Aug 6.2 03:47:19 10° ENE 03:48:41 11° E 03:50:03 10° E visible
